Weather History for KPVU - June, 2014

Change the Weather History Date:

Friday, June 6, 2014

  Actual Average Record
Temperature  
Mean Temperature 66 °F -  
Max Temperature 84 °F 74 °F 93 °F (2006)
Min Temperature 48 °F 48 °F 39 °F (2012)
Cooling Degree Days 1    
Growing Degree Days 16 (Base 50)    
Moisture  
Dew Point 36 °F    
Average Humidity 41    
Maximum Humidity 62    
Minimum Humidity 11    
Precipitation  
Precipitation 0.00 in - - ()
Sea Level Pressure  
Sea Level Pressure 29.95 in    
Wind  
Wind Speed 3 mph (SSE)    
Max Wind Speed 8 mph    
Max Gust Speed -    
Visibility 11 miles    
Events      
Averages and records for this station are not official NWS values.
T = Trace of Precipitation, MM = Missing Value Source: NWS Daily Summary

Daily Weather History Graph

Daily Weather History Graph

Search for Another Location

Airport or City:

Trip Planner

Search our weather history database for the weather conditions in past years. The results will help you decide how hot, cold, wet, or windy it might be!

Date:

Astronomy

Jun. 06, 2014 Rise Set
Actual Time 5:57 AM MDT 8:53 PM MDT
Civil Twilight 5:25 AM MDT 9:26 PM MDT
Nautical Twilight 4:43 AM MDT 10:07 PM MDT
Astronomical Twilight 3:56 AM MDT 10:55 PM MDT
Moon 2:15 PM MDT (6/6) 1:51 AM MDT (6/6)
Length of Visible Light 16h 01m
Length of Day
14h 56m
First Quarter, 59% of the Moon is Illuminated
Jun 6
First Quarter
Jun 12
Full
Jun 19
Last Quarter
Jun 27
New
Jul 5
First Quarter

Hourly Weather History & Observations

Time (MDT) Temp. Dew Point Humidity Pressure Visibility Wind Dir Wind Speed Gust Speed Precip Events Conditions
12:15 AM 57.2 °F 35.6 °F 44% 29.96 in 10.0 mi SE 8.1 mph - N/A   Clear
12:35 AM 57.2 °F 35.6 °F 44% 29.97 in 10.0 mi Calm Calm - N/A   Clear
12:55 AM 57.2 °F 37.4 °F 48% 29.96 in 10.0 mi SSE 5.8 mph - N/A   Clear
1:15 AM 57.2 °F 37.4 °F 48% 29.96 in 10.0 mi Calm Calm - N/A   Clear
1:35 AM 55.4 °F 39.2 °F 54% 29.96 in 10.0 mi Calm Calm - N/A   Clear
1:55 AM 55.4 °F 37.4 °F 51% 29.96 in 10.0 mi SE 6.9 mph - N/A   Clear
2:15 AM 55.4 °F 37.4 °F 51% 29.96 in 10.0 mi SE 5.8 mph - N/A   Clear
2:35 AM 53.6 °F 37.4 °F 54% 29.96 in 10.0 mi ESE 3.5 mph - N/A   Clear
2:55 AM 51.8 °F 33.8 °F 50% 29.96 in 10.0 mi Calm Calm - N/A   Clear
3:15 AM 53.6 °F 35.6 °F 51% 29.97 in 10.0 mi Calm Calm - N/A   Clear
3:35 AM 50.0 °F 33.8 °F 54% 29.97 in 10.0 mi ENE 4.6 mph - N/A   Clear
3:55 AM 51.8 °F 28.4 °F 41% 29.97 in 10.0 mi ESE 5.8 mph - N/A   Clear
4:15 AM 53.6 °F 33.8 °F 47% 29.97 in 10.0 mi SE 5.8 mph - N/A   Clear
4:35 AM 51.8 °F 33.8 °F 50% 29.98 in 10.0 mi South 3.5 mph - N/A   Clear
4:55 AM 53.6 °F 32.0 °F 44% 29.98 in 10.0 mi South 3.5 mph - N/A   Clear
5:15 AM 53.6 °F 33.8 °F 47% 29.98 in 10.0 mi Calm Calm - N/A   Clear
5:35 AM 51.8 °F 33.8 °F 50% 29.98 in 10.0 mi Calm Calm - N/A   Clear
5:55 AM 53.6 °F 33.8 °F 47% 29.98 in 10.0 mi Calm Calm - N/A   Clear
6:15 AM 50.0 °F 33.8 °F 54% 29.98 in 10.0 mi Calm Calm - N/A   Clear
6:35 AM 50.0 °F 32.0 °F 50% 29.99 in 10.0 mi Calm Calm - N/A   Clear
6:47 AM 48.2 °F 35.6 °F 62% 29.99 in 15.0 mi Calm Calm - N/A   Partly Cloudy
7:55 AM 57.2 °F 35.6 °F 44% 29.99 in 15.0 mi Calm Calm - N/A   Partly Cloudy
8:53 AM 62.6 °F 30.2 °F 30% 29.99 in 15.0 mi SSE 3.5 mph - N/A   Partly Cloudy
9:47 AM 66.2 °F 33.8 °F 30% 29.99 in 15.0 mi Calm Calm - N/A   Partly Cloudy
10:49 AM 69.8 °F 35.6 °F 28% 29.98 in 15.0 mi Variable 3.5 mph - N/A   Partly Cloudy
11:47 AM 73.4 °F 33.8 °F 23% 29.97 in 15.0 mi SW 3.5 mph - N/A   Scattered Clouds
12:50 PM 75.2 °F 37.4 °F 25% 29.96 in 15.0 mi West 6.9 mph - N/A   Scattered Clouds
4:51 PM 84.2 °F 26.6 °F 12% 29.91 in 15.0 mi WSW 3.5 mph - N/A   Scattered Clouds
5:47 PM 84.2 °F 24.8 °F 11% 29.89 in 15.0 mi Calm Calm - N/A   Scattered Clouds
6:51 PM 84.2 °F 24.8 °F 11% 29.89 in 15.0 mi Calm Calm - N/A   Scattered Clouds
7:47 PM 80.6 °F 37.4 °F 21% 29.89 in 15.0 mi West 5.8 mph - N/A   Scattered Clouds
8:47 PM 77.0 °F 44.6 °F 32% 29.89 in 15.0 mi Calm Calm - N/A   Scattered Clouds
9:15 PM 73.4 °F 39.2 °F 29% 29.90 in 10.0 mi Calm Calm - N/A   Clear
9:35 PM 69.8 °F 39.2 °F 33% 29.90 in 10.0 mi North 4.6 mph - N/A   Clear
9:55 PM 68.0 °F 42.8 °F 40% 29.91 in 9.0 mi South 4.6 mph - N/A   Clear
10:15 PM 66.2 °F 42.8 °F 43% 29.92 in 10.0 mi Calm Calm - N/A   Clear
10:35 PM 66.2 °F 44.6 °F 46% 29.92 in 10.0 mi Calm Calm - N/A   Clear
10:55 PM 66.2 °F 44.6 °F 46% 29.93 in 10.0 mi Calm Calm - N/A   Clear
11:15 PM 62.6 °F 42.8 °F 48% 29.93 in 10.0 mi SSW 3.5 mph - N/A   Clear
11:35 PM 62.6 °F 41.0 °F 45% 29.93 in 10.0 mi Calm Calm - N/A   Clear
11:55 PM 62.6 °F 39.2 °F 42% 29.93 in 10.0 mi Calm Calm - N/A   Clear